GW5238 Weather Reports


time (UTC)temp
F
wind
direction
speed
knots
gust
knots
rain 1hr
in
rain 24hr
in
rain mn
in
humidity
%
barometer
mb
20260506162531 62 213 1.7 2.6 0.00 0.00 0.00 82 1010.9
20260506162026 62 256 0.0 1.7 0.00 0.00 0.00 82 1010.9
20260506161518 62 221 0.9 1.7 0.00 0.00 0.00 81 1011.0
20260506161013 62 240 1.7 2.6 0.00 0.00 0.00 79 1011.0
20260506160509 62 221 0.0 2.6 0.00 0.00 0.00 79 1011.0
20260506160001 63 186 1.7 1.7 0.00 0.00 0.00 78 1011.0
20260506155715 63 188 1.7 2.6 0.00 0.00 0.00 79 1011.1
20260506155433 62 249 0.9 2.6 0.00 0.00 0.00 79 1011.3
20260506154443 63 251 0.0 1.7 0.00 0.00 0.00 78 1011.3
20260506153935 62 260 0.0 3.5 0.00 0.00 0.00 79 1011.4
20260506153427 62 230 1.7 2.6 0.00 0.00 0.00 79 1011.4
20260506152922 62 119 1.7 2.6 0.00 0.00 0.00 79 1011.4
20260506152414 62 226 0.9 1.7 0.00 0.00 0.00 79 1011.4
20260506152129 62 40 1.7 1.7 0.00 0.00 0.00 80 1011.4
20260506151401 62 239 0.9 1.7 0.00 0.00 0.00 79 1011.3
20260506150856 62 102 0.9 3.5 0.00 0.00 0.00 80 1011.1
20260506150348 62 152 0.9 1.7 0.00 0.00 0.00 80 1011.1
20260506145843 62 196 0.9 2.6 0.00 0.00 0.00 79 1011.2
20260506145335 62 171 0.9 2.6 0.00 0.00 0.00 79 1011.3
20260506145046 62 108 0.9 2.6 0.00 0.00 0.00 80 1010.9
20260506144322 62 229 0.9 2.6 0.00 0.00 0.00 80 1011.2
20260506143814 62 174 3.5 6.1 0.00 0.00 0.00 79 1011.2
20260506143309 62 252 0.0 2.6 0.00 0.00 0.00 79 1011.1
20260506142801 63 251 0.9 0.9 0.00 0.00 0.00 78 1011.3
20260506142256 63 324 0.0 3.5 0.00 0.00 0.00 77 1011.5
20260506141748 63 257 0.9 1.7 0.00 0.00 0.00 78 1011.5
20260506141243 63 207 0.9 2.6 0.00 0.00 0.00 78 1011.5
20260506140956 63 281 3.5 5.2 0.00 0.00 0.00 77 1011.2
20260506140231 63 223 0.9 6.1 0.00 0.00 0.00 77 1011.3
20260506135723 64 202 3.5 6.1 0.00 0.00 0.00 77 1011.3
20260506135218 63 231 3.5 5.2 0.00 0.00 0.00 78 1011.3
20260506134710 62 267 1.7 1.7 0.00 0.00 0.00 79 1011.7
20260506134205 62 110 1.7 2.6 0.00 0.00 0.00 79 1011.5
20260506133656 63 245 0.9 1.7 0.00 0.00 0.00 79 1011.6
20260506133414 62 233 0.9 2.6 0.00 0.00 0.00 79 1011.3
20260506132644 62 250 0.9 2.6 0.00 0.00 0.00 80 1011.5
20260506132139 62 265 1.7 3.5 0.00 0.00 0.00 80 1011.3
20260506131631 61 139 1.7 2.6 0.00 0.00 0.00 81 1011.0
20260506131123 61 250 0.9 2.6 0.00 0.00 0.00 81 1010.9
20260506130611 61 126 1.7 3.5 0.00 0.00 0.00 81 1011.4
20260506130103 61 238 0.0 1.7 0.00 0.00 0.00 82 1011.2
20260506125555 61 206 0.9 1.7 0.00 0.00 0.00 82 1011.3
20260506125050 61 253 0.0 2.6 0.00 0.00 0.00 82 1011.2
20260506124542 61 247 1.7 1.7 0.00 0.00 0.00 82 1011.2
20260506124037 61 296 0.9 2.6 0.00 0.00 0.00 82 1011.4
20260506123529 62 194 2.6 6.1 0.00 0.00 0.00 81 1011.4
20260506123023 61 216 1.7 2.6 0.00 0.00 0.00 81 1011.6
20260506122516 61 244 1.7 2.6 0.00 0.00 0.00 82 1011.5
20260506122010 61 244 1.7 2.6 0.00 0.00 0.00 82 1011.8
20260506121722 60 262 0.9 2.6 0.00 0.00 0.00 82 1011.8
20260506120954 61 253 1.7 2.6 0.00 0.00 0.00 82 1012.0
20260506120712 61 232 0.9 2.6 0.00 0.00 0.00 82 1011.9
20260506120201 60 210 0.9 1.7 0.00 0.00 0.00 83 1011.9
20260506115437 61 208 1.7 2.6 0.00 0.00 0.00 83 1011.5
20260506114929 61 217 1.7 2.6 0.00 0.00 0.00 82 1011.8
20260506114424 60 76 1.7 2.6 0.00 0.00 0.00 84 1011.7
20260506113916 60 246 0.0 1.7 0.00 0.00 0.00 85 1011.6
20260506113122 58 228 0.0 1.7 0.00 0.00 0.00 87 1011.6
20260506112614 58 249 0.0 0.9 0.00 0.00 0.00 87 1011.7
20260506112111 58 269 0.9 1.7 0.00 0.00 0.00 88 1011.8
20260506111343 57 216 0.9 1.7 0.00 0.00 0.00 89 1011.8
20260506110837 57 243 0.0 0.9 0.00 0.00 0.00 90 1011.8
20260506110815 56 262 0.0 0.9 0.00 0.00 0.00 90 1011.8
20260506105824 56 219 0.0 0.9 0.00 0.00 0.00 90 1011.8
20260506105535 56 249 0.9 1.7 0.00 0.00 0.00 90 1011.9
20260506104811 56 251 0.0 1.7 0.00 0.00 0.00 91 1011.9
20260506104303 56 257 0.9 0.9 0.00 0.00 0.00 92 1011.7
20260506103755 56 180 0.9 1.7 0.00 0.00 0.00 92 1011.8
20260506103244 55 256 0.0 1.7 0.00 0.00 0.00 93 1011.8
20260506102739 55 217 0.0 0.9 0.00 0.00 0.00 93 1011.8
20260506102231 55 209 0.0 0.9 0.00 0.00 0.00 93 1011.7
20260506101723 54 259 0.9 0.9 0.00 0.00 0.00 93 1011.8
20260506101219 54 246 0.9 0.9 0.00 0.00 0.00 93 1011.9
20260506100709 54 235 0.0 0.9 0.00 0.00 0.00 93 1011.6
20260506100205 54 250 0.0 0.9 0.00 0.00 0.00 93 1011.8
20260506095657 54 227 0.0 0.9 0.00 0.00 0.00 93 1011.9
20260506095152 54 227 0.9 3.5 0.00 0.00 0.00 93 1011.6
20260506094139 54 251 0.0 0.9 0.00 0.00 0.00 92 1011.5
20260506093631 54 236 0.0 0.0 0.00 0.00 0.00 92 1011.9
20260506093123 55 251 0.0 0.0 0.00 0.00 0.00 91 1011.6
20260506092837 55 244 0.0 0.9 0.00 0.00 0.00 91 1011.5
20260506092110 55 258 0.0 0.9 0.00 0.00 0.00 91 1011.7
20260506091605 55 255 0.0 1.7 0.00 0.00 0.00 91 1011.7
20260506091057 55 254 0.9 1.7 0.00 0.00 0.00 91 1011.8
20260506090552 55 190 0.9 1.7 0.00 0.00 0.00 90 1011.9
20260506090044 55 247 0.9 1.7 0.00 0.00 0.00 90 1011.8
20260506085539 55 243 0.9 2.6 0.00 0.00 0.00 90 1011.8
20260506085031 55 233 0.9 0.9 0.00 0.00 0.00 90 1011.6
20260506084523 55 178 0.9 1.7 0.00 0.00 0.00 90 1011.7
20260506084240 56 257 0.9 0.9 0.00 0.00 0.00 90 1011.8
20260506083510 56 276 0.0 1.7 0.00 0.00 0.00 90 1011.8
20260506083005 56 228 1.7 1.7 0.00 0.00 0.00 89 1012.1
20260506082457 56 204 0.9 1.7 0.00 0.00 0.00 89 1012.1
20260506081952 56 236 1.7 1.7 0.00 0.00 0.00 89 1012.1
20260506081444 56 254 0.0 3.5 0.00 0.00 0.00 89 1011.9
20260506080939 56 239 1.7 1.7 0.00 0.00 0.00 89 1012.2
20260506080425 56 267 0.9 1.7 0.00 0.00 0.00 89 1011.9
20260506073346 56 289 0.0 1.7 0.00 0.00 0.00 88 1012.0
20260506072838 56 228 0.9 1.7 0.00 0.00 0.00 88 1012.0
20260506072333 56 272 0.9 1.7 0.00 0.00 0.00 88 1012.0
20260506071825 56 252 0.9 1.7 0.00 0.00 0.00 88 1012.1
20260506071320 56 250 0.9 0.9 0.00 0.00 0.00 87 1012.2
20260506070811 56 258 0.0 1.7 0.00 0.00 0.00 87 1012.2
20260506070307 56 258 0.9 3.5 0.00 0.00 0.00 87 1011.9
20260506062434 57 247 0.9 1.7 0.00 0.00 0.00 86 1011.9
20260506062152 57 185 0.9 1.7 0.00 0.00 0.00 86 1012.0
20260506061200 57 219 0.9 1.7 0.00 0.00 0.00 85 1011.9
20260506060913 57 201 0.9 1.7 0.00 0.00 0.00 84 1011.9
20260506060146 58 254 0.9 0.9 0.00 0.00 0.00 84 1011.9
20260506051039 59 245 0.9 1.7 0.00 0.00 0.00 81 1012.3
20260506050534 59 253 1.7 1.7 0.00 0.00 0.00 81 1012.3
20260506045016 60 250 0.9 1.7 0.00 0.00 0.00 80 1012.5
20260506044508 60 221 1.7 2.6 0.00 0.00 0.00 80 1012.5
20260506044003 59 258 0.9 0.9 0.00 0.00 0.00 80 1012.4
20260506043455 60 252 0.0 0.9 0.00 0.00 0.00 80 1012.5
20260506042947 60 255 0.0 0.9 0.00 0.00 0.00 80 1012.3
20260506042442 60 232 0.0 1.7 0.00 0.00 0.00 80 1012.6
20260506041934 60 247 0.0 0.9 0.00 0.00 0.00 79 1012.4
20260506041429 60 251 0.9 0.9 0.00 0.00 0.00 78 1012.5
20260506040921 60 230 0.0 0.0 0.00 0.00 0.00 78 1012.6
20260506040636 60 256 0.9 1.7 0.00 0.00 0.00 77 1012.4
20260506035912 61 261 0.9 1.7 0.00 0.00 0.00 77 1012.3
20260506035404 61 248 0.9 1.7 0.00 0.00 0.00 76 1012.3
20260506034859 61 257 0.9 0.9 0.00 0.00 0.00 76 1012.3
20260506034837 61 256 0.9 1.7 0.00 0.00 0.00 76 1012.3
20260506033843 61 228 0.9 1.7 0.00 0.00 0.00 76 1012.4
20260506033338 61 231 1.7 2.6 0.00 0.00 0.00 75 1012.1
20260506032829 61 243 0.9 1.7 0.00 0.00 0.00 75 1012.1
20260506032324 61 240 0.9 1.7 0.00 0.00 0.00 75 1012.4
20260506032035 61 250 0.0 2.6 0.00 0.00 0.00 74 1012.3
20260506030757 61 269 0.9 1.7 0.00 0.00 0.00 74 1012.2
20260506030253 61 237 0.9 0.9 0.00 0.00 0.00 74 1012.3
20260506025745 61 255 0.9 1.7 0.00 0.00 0.00 73 1012.5
20260506025240 62 219 1.7 2.6 0.00 0.00 0.00 72 1012.3
20260506024732 62 207 1.7 2.6 0.00 0.00 0.00 72 1012.5
20260506024714 62 255 1.7 2.6 0.00 0.00 0.00 71 1012.2
20260506023719 62 222 0.9 2.6 0.00 0.00 0.00 72 1012.4
20260506023211 62 254 0.0 1.7 0.00 0.00 0.00 71 1012.4
20260506022706 62 251 0.9 1.7 0.00 0.00 0.00 71 1012.4
20260506022416 62 199 1.7 2.6 0.00 0.00 0.00 71 1012.2
20260506021652 62 249 0.9 3.5 0.00 0.00 0.00 70 1012.4
20260506021144 63 262 0.9 2.6 0.00 0.00 0.00 70 1012.4
20260506020859 63 295 0.9 2.6 0.00 0.00 0.00 70 1012.1
20260506020351 63 255 1.7 3.5 0.00 0.00 0.00 69 1012.1
20260506015627 63 227 2.6 3.5 0.00 0.00 0.00 69 1012.3
20260506015119 63 204 1.7 5.2 0.00 0.00 0.00 68 1012.1
20260506014611 63 235 2.6 5.2 0.00 0.00 0.00 68 1012.0
20260506014106 63 209 2.6 6.1 0.00 0.00 0.00 69 1012.1
20260506013558 63 251 0.0 0.9 0.00 0.00 0.00 70 1011.9
20260506013053 63 267 1.7 2.6 0.00 0.00 0.00 69 1012.0
20260506012545 63 248 0.9 2.6 0.00 0.00 0.00 68 1011.8
20260506012040 63 270 0.9 1.7 0.00 0.00 0.00 69 1011.9
20260506011532 63 234 1.7 1.7 0.00 0.00 0.00 69 1011.8
20260506011027 63 244 1.7 2.6 0.00 0.00 0.00 68 1011.5
20260506010740 63 240 1.7 1.7 0.00 0.00 0.00 68 1011.6
20260506010011 63 238 0.9 2.6 0.00 0.00 0.00 68 1011.5
20260506005506 63 206 1.7 2.6 0.00 0.00 0.00 68 1011.4
20260506004958 63 0 0.0 0.9 0.00 0.00 0.00 68 1011.4
20260506004453 64 249 0.9 1.7 0.00 0.00 0.00 66 1011.2
20260506003945 64 258 0.9 1.7 0.00 0.00 0.00 67 1011.3
20260506003440 63 235 0.9 2.6 0.00 0.00 0.00 67 1011.2
20260506002932 64 240 0.9 1.7 0.00 0.00 0.00 66 1011.1
20260506002427 64 243 1.7 3.5 0.00 0.00 0.00 66 1011.0
20260506001919 64 68 0.9 1.7 0.00 0.00 0.00 66 1010.9
20260506001411 64 236 0.0 1.7 0.00 0.00 0.00 65 1010.9
20260506000905 64 187 1.7 2.6 0.00 0.00 0.00 65 1010.9
20260506000358 64 260 0.0 1.7 0.00 0.00 0.00 64 1010.7
20260505235853 65 247 0.9 1.7 0.00 0.00 0.00 63 1010.8
20260505235345 64 267 1.7 2.6 0.00 0.00 0.00 63 1010.8
20260505234840 64 261 0.9 1.7 0.00 0.00 0.00 64 1010.5
20260505234332 64 298 0.0 0.9 0.00 0.00 0.00 64 1010.5
20260505234046 65 244 0.9 2.6 0.00 0.00 0.00 62 1010.4
20260505233319 65 247 2.6 3.5 0.00 0.00 0.00 61 1010.6
20260505232811 65 203 0.9 6.1 0.00 0.00 0.00 62 1010.2
20260505232306 66 204 1.7 3.5 0.00 0.00 0.00 62 1010.3
20260505231758 66 177 2.6 3.5 0.00 0.00 0.00 61 1010.3
20260505231252 66 199 2.6 3.5 0.00 0.00 0.00 61 1010.3
20260505230738 66 208 1.7 2.6 0.00 0.00 0.00 61 1010.1
20260505230234 66 251 2.6 5.2 0.00 0.00 0.00 61 1010.1
20260505225726 67 305 2.6 6.1 0.00 0.00 0.00 60 1010.1
20260505225221 67 277 1.7 7.0 0.00 0.00 0.00 60 1010.1
20260505224712 67 260 0.0 3.5 0.00 0.00 0.00 60 1009.8
20260505224208 67 248 0.9 2.6 0.00 0.00 0.00 60 1010.0
20260505223700 68 243 1.7 5.2 0.00 0.00 0.00 59 1009.9
20260505223154 68 210 2.6 5.2 0.00 0.00 0.00 59 1010.1
20260505222646 68 193 1.7 5.2 0.00 0.00 0.00 59 1010.1
20260505222623 68 258 3.5 5.2 0.00 0.00 0.00 58 1010.0
20260505221633 68 182 1.7 1.7 0.00 0.00 0.00 59 1010.1
20260505221126 68 233 1.7 2.6 0.00 0.00 0.00 59 1010.1
20260505220841 68 208 0.9 2.6 0.00 0.00 0.00 60 1010.0
20260505220117 68 213 2.6 5.2 0.00 0.00 0.00 59 1010.0
20260505215609 69 179 2.6 3.5 0.00 0.00 0.00 59 1009.9
20260505215104 69 202 5.2 7.0 0.00 0.00 0.00 58 1010.0
20260505214556 69 241 2.6 5.2 0.00 0.00 0.00 59 1009.8
20260505214051 69 220 1.7 3.5 0.00 0.00 0.00 60 1009.8
20260505213543 69 252 1.7 5.2 0.00 0.00 0.00 60 1009.9
20260505213034 69 290 5.2 7.0 0.00 0.00 0.00 58 1009.9
20260505212529 70 239 1.7 2.6 0.00 0.00 0.00 59 1009.8
20260505212021 69 250 1.7 5.2 0.00 0.00 0.00 59 1009.8
20260505211516 69 237 0.9 1.7 0.00 0.00 0.00 59 1009.7
20260505211008 70 114 0.9 3.5 0.00 0.00 0.00 58 1009.6
20260505210727 70 180 0.9 5.2 0.00 0.00 0.00 59 1009.4
20260505205956 70 230 2.6 5.2 0.00 0.00 0.00 59 1009.7
20260505205451 70 282 1.7 2.6 0.00 0.00 0.00 59 1009.9
20260505204943 70 260 0.9 3.5 0.00 0.00 0.00 59 1009.6
20260505204435 70 266 0.9 5.2 0.00 0.00 0.00 59 1009.7
20260505203930 70 202 2.6 5.2 0.00 0.00 0.00 58 1009.6
20260505203422 71 264 3.5 3.5 0.00 0.00 0.00 58 1009.7
20260505202917 71 176 0.9 1.7 0.00 0.00 0.00 59 1009.7
20260505202409 71 155 1.7 2.6 0.00 0.00 0.00 58 1009.8
20260505201903 70 194 2.6 5.2 0.00 0.00 0.00 59 1009.8
20260505201355 71 203 2.6 8.7 0.00 0.00 0.00 59 1009.9
20260505200851 71 270 1.7 3.5 0.00 0.00 0.00 59 1010.0
20260505200343 70 204 3.5 5.2 0.00 0.00 0.00 58 1010.0
20260505200057 71 189 1.7 6.1 0.00 0.00 0.00 57 1010.3
20260505195330 70 259 2.6 6.1 0.00 0.00 0.00 59 1010.2
20260505194822 71 237 1.7 2.6 0.00 0.00 0.00 60 1010.1
20260505194316 71 175 1.7 3.5 0.00 0.00 0.00 59 1010.2
20260505193808 71 10 4.3 6.1 0.00 0.00 0.00 57 1010.3
20260505193525 70 244 1.7 2.6 0.00 0.00 0.00 58 1010.3
20260505193014 71 201 3.5 5.2 0.00 0.00 0.00 57 1010.4
20260505192506 72 264 0.9 5.2 0.00 0.00 0.00 58 1010.3
20260505191741 72 197 1.7 2.6 0.00 0.00 0.00 58 1010.2
20260505191225 71 265 5.2 6.1 0.00 0.00 0.00 58 1010.7
20260505190718 71 216 2.6 3.5 0.00 0.00 0.00 57 1010.7
20260505190213 72 218 2.6 6.1 0.00 0.00 0.00 58 1010.6
20260505185704 71 72 0.9 6.1 0.00 0.00 0.00 58 1011.0
20260505185159 73 210 2.6 6.1 0.00 0.00 0.00 57 1010.9
20260505184651 74 265 0.0 6.1 0.00 0.00 0.00 56 1010.9
20260505184409 73 65 1.7 2.6 0.00 0.00 0.00 57 1011.0
20260505183638 74 112 0.9 3.5 0.00 0.00 0.00 56 1011.0
20260505183130 74 130 1.7 2.6 0.00 0.00 0.00 54 1010.8
20260505182625 74 273 0.0 3.5 0.00 0.00 0.00 55 1010.8
20260505182605 74 190 3.5 6.1 0.00 0.00 0.00 55 1010.8
20260505181613 76 208 4.3 6.1 0.00 0.00 0.00 53 1010.8
20260505181104 74 94 1.7 5.2 0.00 0.00 0.00 53 1010.7
20260505180600 74 235 1.7 3.5 0.00 0.00 0.00 55 1010.8
20260505180052 74 204 1.7 6.1 0.00 0.00 0.00 56 1011.0
20260505175547 74 263 1.7 5.2 0.00 0.00 0.00 56 1011.0
20260505175039 73 81 3.5 6.1 0.00 0.00 0.00 54 1010.8
20260505174531 74 222 3.5 5.2 0.00 0.00 0.00 53 1011.0
20260505174026 77 187 2.6 5.2 0.00 0.00 0.00 51 1010.9
20260505173517 75 200 2.6 3.5 0.00 0.00 0.00 52 1010.9
20260505173013 76 257 2.6 6.1 0.00 0.00 0.00 49 1011.0
20260505172504 76 274 1.7 5.2 0.00 0.00 0.00 49 1011.0
20260505172218 75 108 1.7 5.2 0.00 0.00 0.00 51 1010.8
20260505171451 76 213 1.7 3.5 0.00 0.00 0.00 50 1010.9
20260505170946 74 202 1.7 2.6 0.00 0.00 0.00 52 1011.1
20260505170442 74 143 3.5 6.1 0.00 0.00 0.00 51 1011.1
20260505165934 76 254 3.5 5.2 0.00 0.00 0.00 50 1011.1
20260505165426 75 208 3.5 5.2 0.00 0.00 0.00 51 1011.0
20260505165143 76 147 3.5 3.5 0.00 0.00 0.00 51 1011.0
20260505164414 75 264 0.0 3.5 0.00 0.00 0.00 53 1010.9
20260505164129 76 175 1.7 2.6 0.00 0.00 0.00 53 1011.1
20260505163621 73 291 0.9 2.6 0.00 0.00 0.00 53 1011.2
20260505162856 73 246 3.5 5.2 0.00 0.00 0.00 52 1011.4